Location: *
(50.6089°N, 2.2719°E)
Time: 12:11:42
(UTC+00:00)

STARLINK-45 - Pass Details

Date: 18 October 2019
Orbit: 548 x 551 km, 53.0° (Epoch: 14 November)

Event Time Altitude Azimuth Distance (km) Brightness Sun altitude
Rises 18:19:15 0° 263° (W) 2,717 9.0 -14.3°
Reaches altitude 10° 18:21:30 10° 266° (W) 1,825 7.7 -14.7°
Maximum altitude 18:25:38 68° 349° (N) 598 3.8 -15.3°
Enters shadow 18:27:48 27° 67° (ENE) 1,088 4.6 -15.7°
